Location: Potawatomi Wildlife Park
(41.2308°N, 86.1050°W)
Time: 17:23:50
(UTC-04:00)

Daily predictions for brighter satellites

Satellite Brightness Start Highest point End
(mag) Time Altitude Azimuth Time Altitude Azimuth Time Altitude Azimuth
Cosmos 292 Rocket 3.9 21:28:35 10° S 21:33:17 54° ESE 21:38:00 10° NNE
Envisat 3.1 21:28:37 10° SSE 21:33:37 64° ENE 21:38:40 10° N
Iridium 4 Rocket 3.5 21:33:08 10° N 21:38:04 86° E 21:43:28 10° S
Cosmos 1666 4.4 21:36:43 10° NNE 21:39:21 18° ENE 21:41:56 10° ESE
Lacrosse 5 rocket 4.4 21:36:36 10° WNW 21:39:51 19° NNW 21:43:09 10° NNE
Cosmos 1943 4.3 21:35:24 10° SW 21:40:52 51° WNW 21:46:21 10° NNE
ASTEX 1 4.3 21:44:24 10° SE 21:48:45 32° ENE 21:53:04 10° NNE
RESURS DK-1 2.7 21:48:41 10° SSW 21:52:47 71° WNW 21:56:56 10° NNE
Cosmos 1538 Rocket 4.1 21:48:49 10° SSW 21:53:58 84° WNW 21:59:10 10° NNE
Aureole 3 Rocket 4.2 21:48:46 10° SSE 21:55:25 46° E 22:00:15 10° NNE
NOSS 2-2 (E) 3.5 21:53:21 10° SSW 21:57:16 56° ESE 22:01:44 10° NE
Cosmos 1455 Rocket 3.1 21:53:50 10° N 21:58:13 87° W 22:02:33 10° S
Okean 1 3.8 21:54:45 10° SSW 21:58:41 65° W 22:02:39 10° N
Cosmos 2369 Rocket 3.7 21:55:29 10° NW 22:00:32 34° WSW 22:05:35 10° SSW
Cosmos 1975 3.0 21:56:41 10° NNW 22:00:44 74° W 22:04:47 10° S
Spot 1 4.4 21:57:24 10° S 22:02:02 71° WSW 22:06:24 10° NNW
Cosmos 923 Rocket 4.2 21:57:25 10° S 22:02:35 52° ESE 22:07:44 10° NNE
Cosmos 405 Rocket 2.9 22:00:06 10° S 22:03:40 47° E 22:07:20 10° NNE
Cosmos 1346 3.6 22:03:17 15° SSE 22:05:12 32° E 22:07:44 10° NNE
Helios 1B rocket 2.8 22:01:12 10° N 22:05:19 69° WNW 22:09:25 10° SSW
Cosmos 1656 Rocket 3.8 22:00:09 10° NNW 22:05:34 62° ENE 22:10:13 14° SE
Tiangong 2 2.5 22:05:40 10° SSW 22:08:02 19° SSE 22:08:38 18° SE
YAOGAN 6 2.4 22:05:25 12° SSE 22:08:40 74° ENE 22:12:10 10° N
SAR-Lupe-4 4.2 22:07:01 10° S 22:10:31 54° W 22:14:03 10° NNW
Meteor 1-13 Rocket 4.3 22:06:05 10° S 22:11:59 71° E 22:17:53 10° NNE
COSMOS 2455 3.1 22:06:19 10° NW 22:12:18 67° WSW 22:18:01 11° SSE
Meteor 1-29 3.5 22:09:50 10° N 22:13:10 60° WNW 22:16:29 10° SSW
Cosmos 1939 Rocket 3.4 22:10:12 10° S 22:13:59 55° W 22:17:49 10° NNW
Cosmos 1441 Rocket 3.8 22:15:22 17° SSE 22:17:44 35° E 22:21:10 10° NNE
Cosmos 1943 Rocket 3.1 22:14:12 10° NW 22:19:31 45° WSW 22:24:44 10° S
Cosmos 1437 3.4 22:18:26 10° SSW 22:21:37 57° WNW 22:24:47 10° N
Cosmos 2327 Rocket 4.5 22:15:29 10° N 22:21:39 71° E 22:27:15 13° SSE
Cosmos 1818 3.8 22:16:25 10° SW 22:21:50 75° WNW 22:27:19 10° NNE
OAO 2 Rocket 3.9 22:17:56 10° SW 22:22:25 35° SSE 22:25:27 18° ESE
ERS-1 Rocket 2.9 22:21:30 14° SSE 22:25:53 85° ENE 22:30:55 10° NNW
H-2A R/B 3.0 22:24:04 18° ESE 22:26:51 29° ENE 22:31:08 10° N
NOAA 11 4.2 22:22:31 16° SSE 22:26:55 69° ENE 22:32:20 10° N
COSMOS 2406 3.2 22:21:42 10° SSW 22:27:25 74° ESE 22:33:08 10° NNE
Okean 1-7 Rocket 3.9 22:25:22 18° SSE 22:28:27 46° E 22:32:44 10° NNE
USA 267 4.4 22:27:48 10° E 22:32:10 19° ESE 22:32:18 19° ESE
Cosmos 2112 Rocket 3.9 22:30:16 10° S 22:35:27 67° ESE 22:40:38 10° NNE
ARGOS 3.3 22:32:24 20° SE 22:36:02 60° ENE 22:41:22 10° N
NOSS 2-2 (D) 3.9 22:36:04 10° SW 22:40:01 65° NW 22:44:37 10° NNE
DNEPR-1 R/B 3.6 22:37:19 10° NNW 22:41:33 71° NE 22:43:52 28° SE
Cosmos 1743 3.6 22:38:18 10° NNW 22:42:02 47° W 22:45:15 13° SSW
Cosmos 2082 Rocket 3.9 22:43:04 14° E 22:43:04 14° E 22:45:46 10° ENE
Intercosmos 24 3.8 22:40:53 10° N 22:44:59 58° E 22:46:21 34° SE
CENTAUR R/B 3.3 22:41:49 10° NW 22:49:44 71° WSW 22:55:42 21° SSE
Okean 2 3.5 22:48:38 32° SSE 22:50:14 52° E 22:54:13 10° NNE
Cosmos 2184 Rocket 4.4 22:44:27 10° NNW 22:50:45 66° W 22:56:27 13° S
Cosmos 2074 Rocket 4.4 22:45:55 10° NNW 22:52:03 61° W 22:57:50 12° S
Cosmos 2228 4.4 22:49:25 10° NNE 22:52:55 24° ENE 22:53:47 22° E
SL-27 R/B 2.4 22:50:50 20° SSW 22:53:16 88° ESE 22:56:57 10° NNE
ASTRO E2 4.4 22:51:59 10° SW 22:54:11 18° SSW 22:54:11 18° SSW
USA 245 2.2 22:54:50 67° SSE 22:55:08 84° ENE 22:57:41 10° N
Cosmos 192 4.2 22:50:27 10° SSW 22:55:21 84° ESE 23:00:17 10° NNE
Cosmos 1437 Rocket 3.0 22:52:51 10° N 22:56:35 50° ENE 22:57:30 40° ESE
Aureole 1 Rocket 2.6 22:53:35 11° SSW 22:56:48 64° WNW 22:59:50 10° NNE
YAOGAN 11 4.1 22:54:49 27° S 22:57:04 76° WSW 23:01:25 10° NNW
Cosmos 1680 Rocket 3.9 22:54:14 10° SSW 22:59:25 64° WNW 23:04:37 10° NNE
Cosmos 921 Rocket 4.2 22:55:34 10° N 22:59:32 29° ENE 23:00:46 25° E
Cosmos 1606 Rocket 3.7 22:56:07 10° N 23:00:23 56° E 23:01:41 39° SE
Cosmos 2056 Rocket 3.9 22:57:16 10° N 23:02:19 49° ENE 23:04:17 32° ESE
Cosmos 405 3.1 22:59:49 10° NNW 23:03:23 70° W 23:04:30 40° SSW
PSLV R/B 2.9 23:01:21 10° W 23:04:29 86° S 23:04:42 75° ESE
Cosmos 1697 Rocket 4.4 23:05:17 10° N 23:09:30 21° NE 23:12:12 15° E
Cosmos 1726 Rocket 3.6 23:07:27 10° N 23:11:45 62° E 23:12:47 46° SE
Meteor 2-4 Rocket 4.4 23:08:10 10° SSW 23:13:36 53° WNW 23:19:15 10° N
Cosmos 1666 4.4 23:11:48 10° NNW 23:15:01 27° W 23:17:11 16° SW
Cosmos 2058 Rocket 3.4 23:11:21 10° N 23:15:39 50° E 23:16:28 43° ESE
SPOT 5 3.0 23:13:45 30° SSW 23:15:40 55° W 23:19:56 10° NNW
SPOT 1/Viking Rocket 3.5 23:15:21 34° S 23:17:41 81° WSW 23:22:53 10° NNW
COSMOS 2487 4.2 23:19:36 21° ENE 23:19:36 21° ENE 23:21:18 10° NE
Landsat 7 3.8 23:17:20 43° SE 23:18:48 69° ENE 23:23:33 10° N
CZ-4B R/B 4.5 23:15:30 10° NE 23:19:50 28° E 23:19:54 28° E
CARTOSAT-1 3.9 23:19:44 43° ESE 23:20:30 48° ENE 23:24:40 10° N
Cosmos 962 Rocket 4.4 23:15:20 10° N 23:21:38 87° E 23:24:35 34° S
Cosmos 839 Rocket 4.5 23:15:21 10° NNW 23:21:49 64° ENE 23:25:33 31° SE
SL-08 RB Rocket 4.0 23:20:54 34° SSW 23:22:39 58° W 23:27:05 10° NNW
Cosmos 1025 Rocket 4.0 23:22:45 18° SW 23:25:34 44° WNW 23:29:41 10° N
Cosmos 1833 Rocket 3.4 23:28:30 33° ESE 23:28:31 33° ESE 23:33:29 10° NE
Cosmos 1066 Rocket 4.4 23:28:37 42° SE 23:29:46 49° E 23:35:08 10° NNE
Terra 1.8 23:32:52 52° SE 23:33:52 69° ENE 23:38:37 10° N
Cosmos 1452 Rocket 4.2 23:29:40 10° N 23:34:39 40° ENE 23:35:54 35° E
Cosmos 1656 4.3 23:29:29 10° N 23:34:40 42° ENE 23:36:14 34° E
SL-8 Rocket 3.9 23:34:13 10° N 23:40:28 75° E 23:42:36 44° SSE
Cosmos 1371 Rocket 4.4 23:36:12 10° NNW 23:41:25 56° WSW 23:43:04 39° SSW
Cosmos 2366 rocket 4.1 23:37:51 10° N 23:43:56 59° E 23:45:36 44° SE
Cosmos 1515 4.3 23:43:36 45° WSW 23:44:13 51° W 23:47:57 10° N
H-2A R/B 2.0 23:45:08 67° SSE 23:45:44 89° E 23:50:18 10° NNW
Meteor 1-4 Rocket 3.3 23:52:48 10° N 23:55:39 48° NNE 23:55:39 48° NNE
